Regional Weather Roundup
Issued by NWS

Home | Current Version | Previous Version | Graphics & Text | Print | Product List | Glossary On
Versions: 1 2 3 4 5 6 7 8 9 10 11 12 13 14 15 16 17 18 19 20 21 22 23 24 25 26 27 28 29 30 31 32 33 34 35 36 37 38 39 40 41 42 43 44 45 46 47 48 49 50
000
ASUS44 KMEG 222010
RWRTN
TENNESSEE HOURLY STATE WEATHER ROUNDUP
NATIONAL WEATHER SERVICE MEMPHIS TN
300 PM CDT TUE JUL 22 2014

TNZ002-004-019-021-049-052-054-088>092-222100-
WEST TENNESSEE

CITY           SKY/WX    TMP DP  RH WIND       PRES   REMARKS
MEMPHIS INTL   MOSUNNY   88  69  53 N3        30.07F HX  92
NWS MEMPHIS      N/A     89 N/A N/A MISG        N/A
JACKSON        MOSUNNY   89  69  51 W6        30.07F HX  93
DYERSBURG      MOSUNNY   88  64  45 CALM      30.07F
UNION CITY     MOSUNNY   90  70  51 VRB5      30.06F HX  95
PARIS          MOSUNNY   88  68  51 CALM      30.08F HX  91
LEXINGTON      MOSUNNY   88  72  58 N3        30.06F HX  94
SAVANNAH       SUNNY     85  76  74 SE8       30.08F HX  94
$$

TNZ008-025-027-028-033-062-065-066-222100-
NORTH MIDDLE TENNESSEE

CITY           SKY/WX    TMP DP  RH WIND       PRES   REMARKS
NASHVILLE      PTSUNNY   90  69  50 S7        30.08F HX  94
DICKSON        MOSUNNY   90  70  51 VRB6      30.09F HX  95
PORTLAND       SUNNY     90  70  51 SW6       30.08F HX  95
CLARKSVILLE    MOSUNNY   92  66  42 CALM      30.06F HX  94
LEBANON        PTSUNNY   89  68  49 VRB6      30.07F HX  92
SMYRNA         PTSUNNY   94  71  47 W6        30.08F HX 101
MURFREESBORO   MOSUNNY   89  69  51 SW5       30.08F HX  93
COOKEVILLE     MOSUNNY   91  73  55 CALM      30.11S HX 100
GALLATIN       PTSUNNY   91  71  51 S9        30.09F HX  97
CROSSVILLE     CLOUDY    81  67  62 SW3       30.16F
$$

TNZ061-075-076-078-094-096-097-222100-
SOUTH MIDDLE TENNESSEE

CITY           SKY/WX    TMP DP  RH WIND       PRES   REMARKS
LEWISBURG      PTSUNNY   87  68  53 CALM      30.08F HX  90
FAYETTEVILLE   MOSUNNY   82  70  65 S8        30.10F
TULLAHOMA      MOSUNNY   88  68  51 CALM      30.12F HX  91
WINCHESTER     MOSUNNY   88  70  55 VRB3      30.10F HX  92
MCMINNVILLE    MOSUNNY   86  72  62 CALM      30.11F HX  92
COLUMBIA       SUNNY     88  73  62 CALM      30.07F HX  96
SHELBYVILLE    PTSUNNY   90  73  58 VRB6      30.10F HX  98
$$

TNZ017-018-042-046-047-222100-
NORTHEAST TENNESSEE

CITY           SKY/WX    TMP DP  RH WIND       PRES   REMARKS
TRI CITIES     MOSUNNY   89  65  44 N5        30.12F HX  91
ELIZABETHTON   CLEAR     84  63  48 VRB5      30.12F
$$

TNZ012-013-036-069-073-074-222100-
CENTRAL EAST TENNESSEE

CITY           SKY/WX    TMP DP  RH WIND       PRES   REMARKS
KNOXVILLE      PTSUNNY   87  68  52 CALM      30.09F HX  90
OAK RIDGE      MOSUNNY   88  69  53 VRB3      30.10F HX  92
GATLINBURG     CLEAR     88  68  51 NW6       30.08F HX  91
MORRISTOWN     PTCLDY    86  70  58 NW7       30.12F HX  90
$$

TNZ083-085-099-222100-
SOUTHEAST TENNESSEE

CITY           SKY/WX    TMP DP  RH WIND       PRES   REMARKS
CHATTANOOGA    PTSUNNY   88  67  49 CALM      30.08F HX  91
$$

SKY/WX REPORTED AS FAIR MEANS FEW OR NO CLOUDS BELOW
12 THOUSAND FEET.



USA.gov is the U.S. government's official web portal to all federal, state and local government web resources and services.